TimeCST,TemperatureF,Dew PointF,Humidity,Sea Level PressureIn,VisibilityMPH,Wind Direction,Wind SpeedMPH,Gust SpeedMPH,PrecipitationIn,Events,Conditions,WindDirDegrees,DateUTC
12:15 AM,35.6,33.8,93,30.06,4.0,WSW,5.8,-,N/A,,Overcast,250,2011-11-24 06:15:00
12:35 AM,35.6,33.8,93,30.05,4.0,West,6.9,-,N/A,,Overcast,260,2011-11-24 06:35:00
12:55 AM,35.6,33.8,93,30.05,4.0,WSW,6.9,-,N/A,,Overcast,250,2011-11-24 06:55:00
1:35 AM,37.4,33.8,87,30.05,4.0,West,8.1,-,N/A,,Overcast,270,2011-11-24 07:35:00
1:55 AM,37.4,33.8,87,30.05,4.0,WSW,6.9,-,N/A,,Overcast,250,2011-11-24 07:55:00
2:15 AM,37.4,33.8,87,30.06,4.0,West,6.9,-,N/A,,Overcast,260,2011-11-24 08:15:00
2:35 AM,37.4,33.8,87,30.06,4.0,West,5.8,-,N/A,,Overcast,260,2011-11-24 08:35:00
2:55 AM,37.4,35.6,93,30.05,4.0,WSW,6.9,-,N/A,,Overcast,250,2011-11-24 08:55:00
3:15 AM,37.4,33.8,87,30.05,5.0,WSW,6.9,-,N/A,,Overcast,250,2011-11-24 09:15:00
3:35 AM,37.4,35.6,93,30.05,5.0,WSW,5.8,18.4,N/A,,Overcast,250,2011-11-24 09:35:00
5:15 AM,37.4,33.8,87,30.03,4.0,WSW,10.4,-,N/A,,Overcast,250,2011-11-24 11:15:00
5:35 AM,37.4,35.6,93,30.03,3.0,WSW,5.8,-,N/A,,Overcast,250,2011-11-24 11:35:00
5:55 AM,37.4,35.6,93,30.03,3.0,WSW,9.2,18.4,N/A,,Overcast,240,2011-11-24 11:55:00
6:15 AM,37.4,33.8,87,30.04,3.0,WSW,9.2,-,N/A,,Overcast,250,2011-11-24 12:15:00
6:35 AM,37.4,35.6,93,30.05,4.0,West,8.1,17.3,N/A,,Overcast,260,2011-11-24 12:35:00
6:55 AM,37.4,35.6,93,30.04,4.0,WSW,8.1,16.1,N/A,,Overcast,250,2011-11-24 12:55:00
7:35 AM,37.4,35.6,93,30.04,4.0,WSW,9.2,-,N/A,,Overcast,240,2011-11-24 13:35:00
7:55 AM,37.4,33.8,87,30.04,5.0,WSW,8.1,-,N/A,,Overcast,240,2011-11-24 13:55:00
8:15 AM,37.4,35.6,93,30.03,5.0,WSW,9.2,16.1,N/A,,Overcast,240,2011-11-24 14:15:00
8:35 AM,39.2,33.8,81,30.04,5.0,WSW,9.2,16.1,N/A,,Overcast,240,2011-11-24 14:35:00
8:55 AM,39.2,35.6,87,30.04,5.0,SW,13.8,-,N/A,,Overcast,230,2011-11-24 14:55:00
9:15 AM,39.2,35.6,87,30.04,5.0,WSW,12.7,18.4,N/A,,Overcast,240,2011-11-24 15:15:00
9:35 AM,39.2,35.6,87,30.04,5.0,WSW,11.5,19.6,N/A,,Overcast,240,2011-11-24 15:35:00
9:55 AM,39.2,35.6,87,30.03,5.0,WSW,13.8,19.6,N/A,,Overcast,250,2011-11-24 15:55:00
10:15 AM,41.0,35.6,81,30.03,5.0,WSW,11.5,18.4,N/A,,Overcast,240,2011-11-24 16:15:00
11:35 AM,42.8,35.6,76,29.99,4.0,WSW,10.4,18.4,N/A,,Overcast,240,2011-11-24 17:35:00
11:55 AM,42.8,37.4,81,29.98,5.0,WSW,15.0,21.9,N/A,,Overcast,240,2011-11-24 17:55:00
12:15 PM,42.8,37.4,81,29.97,5.0,WSW,13.8,20.7,N/A,,Overcast,240,2011-11-24 18:15:00
12:35 PM,42.8,37.4,81,29.96,5.0,SW,12.7,20.7,N/A,,Overcast,230,2011-11-24 18:35:00
1:15 PM,44.6,39.2,81,29.94,5.0,SW,17.3,24.2,N/A,,Overcast,230,2011-11-24 19:15:00
1:35 PM,44.6,39.2,81,29.93,5.0,SW,15.0,20.7,N/A,,Overcast,220,2011-11-24 19:35:00
2:15 PM,44.6,39.2,81,29.92,5.0,SW,17.3,23.0,N/A,,Overcast,220,2011-11-24 20:15:00
2:35 PM,44.6,39.2,81,29.91,5.0,SW,12.7,20.7,N/A,,Overcast,220,2011-11-24 20:35:00
2:55 PM,44.6,39.2,81,29.90,4.0,SSW,16.1,-,N/A,,Mostly Cloudy,210,2011-11-24 20:55:00
3:15 PM,44.6,39.2,81,29.91,4.0,SW,15.0,23.0,N/A,,Mostly Cloudy,220,2011-11-24 21:15:00
3:35 PM,42.8,39.2,87,29.90,3.0,SW,15.0,19.6,N/A,,Mostly Cloudy,220,2011-11-24 21:35:00
3:55 PM,42.8,39.2,87,29.91,3.0,SW,18.4,23.0,N/A,,Mostly Cloudy,220,2011-11-24 21:55:00
4:15 PM,42.8,39.2,87,29.90,4.0,SSW,13.8,20.7,N/A,,Scattered Clouds,210,2011-11-24 22:15:00
4:35 PM,42.8,39.2,87,29.90,4.0,SSW,12.7,-,N/A,,Partly Cloudy,210,2011-11-24 22:35:00
4:55 PM,42.8,39.2,87,29.90,5.0,SSW,11.5,18.4,N/A,,Partly Cloudy,210,2011-11-24 22:55:00
5:55 PM,44.6,41.0,87,29.89,6.0,SW,19.6,28.8,N/A,,Partly Cloudy,220,2011-11-24 23:55:00
6:15 PM,42.8,39.2,87,29.89,6.0,SSW,12.7,18.4,N/A,,Scattered Clouds,210,2011-11-25 00:15:00
6:35 PM,42.8,39.2,87,29.88,5.0,SW,16.1,23.0,N/A,,Mostly Cloudy,220,2011-11-25 00:35:00
6:55 PM,42.8,39.2,87,29.88,5.0,SSW,15.0,21.9,N/A,,Mostly Cloudy,210,2011-11-25 00:55:00
7:35 PM,42.8,39.2,87,29.88,5.0,SSW,13.8,-,N/A,,Overcast,210,2011-11-25 01:35:00
7:55 PM,42.8,41.0,93,29.88,5.0,SW,11.5,-,N/A,,Overcast,220,2011-11-25 01:55:00
8:15 PM,42.8,39.2,87,29.87,5.0,SW,12.7,18.4,N/A,,Overcast,220,2011-11-25 02:15:00
8:35 PM,44.6,39.2,81,29.87,5.0,SW,10.4,-,N/A,,Overcast,220,2011-11-25 02:35:00
8:55 PM,42.8,39.2,87,29.86,5.0,SW,11.5,17.3,N/A,,Overcast,220,2011-11-25 02:55:00
9:15 PM,42.8,39.2,87,29.86,4.0,SW,9.2,-,N/A,,Overcast,220,2011-11-25 03:15:00
9:35 PM,42.8,41.0,93,29.86,4.0,SW,10.4,-,N/A,,Scattered Clouds,220,2011-11-25 03:35:00
9:55 PM,42.8,41.0,93,29.84,4.0,SSW,9.2,-,N/A,,Clear,210,2011-11-25 03:55:00
10:15 PM,42.8,39.2,87,29.84,4.0,SW,9.2,-,N/A,,Clear,220,2011-11-25 04:15:00
10:35 PM,42.8,41.0,93,29.84,4.0,SW,10.4,-,N/A,,Clear,220,2011-11-25 04:35:00
11:55 PM,42.8,39.2,87,29.83,4.0,SW,8.1,-,N/A,,Clear,220,2011-11-25 05:55:00